sat.trackr.live / text

‹ back to catalog

STARLINK-33742

NORAD 63366 · 2025-063D

PAYLOAD ACTIVE UNKNOWN

§ Identity

Operator
Country
US
Launch date
2025-03-26
Launch site
AFWTR
Launch vehicle
Mass (kg)
RCS (m²)

Purposes: comms

External: N2YO · Heavens-Above · Gunter

§ Orbital elements

Epoch: 2026-05-25T04:29:56.099040Z

Period
94.10 min
Inclination
53.1583°
Eccentricity
0.0001078
Mean motion
15.30208221 rev/d
Perigee alt
474.5 km
Apogee alt
475.9 km
Semi-major
6,853.3 km
B*
4.6291e-4
RAAN
56.9940°
Arg perigee
88.3475°
Mean anomaly
271.7649°
Rev number
6,642

§ Raw data

STARLINK-337421 63366U 25063D   26145.18745485  .00013379  00000+0  46291-3 0  99972 63366  53.1583  56.9940 0001078  88.3475 271.7649 15.30208221 66423

JSON: /api/v1/satellites/63366 · /tle

For live sub-satellite position, see the globe view (requires WebGL).

§ Visibility from observer

Set your observer location to see the next 7 days of passes ≥ 10°. The values pass through the URL so the page stays shareable.

No JS? Fill the form by hand. The geolocation button needs JavaScript.